When you browse on this site, cookies collect data to enhance your experience and personalize the content and advertising you see.
Visit our Privacy Policy to learn more. By continuing to use the site, you agree to this use of cookies and data.

Hourly Weather Monahov

Today, 4 July, Saturday

Time Temperature Precipitation Wind Pressure Humidity
00:00 +26°C° 0 mm 3 mps 760 mmHg 66%
01:00 +26°C° 0 mm 2 mps 760 mmHg 66%
02:00 +26°C° 0 mm 2 mps 760 mmHg 66%
03:00 +26°C° 0 mm 2 mps 760 mmHg 67%
04:00 +26°C° 0 mm 2 mps 760 mmHg 65%
05:00 +27°C° 0 mm 2 mps 760 mmHg 63%
06:00 +28°C° 0 mm 2 mps 760 mmHg 62%
07:00 +29°C° 0 mm 2 mps 760 mmHg 56%
08:00 +31°C° 0 mm 2 mps 760 mmHg 50%
09:00 +32°C° 0 mm 2 mps 760 mmHg 45%
10:00 +33°C° 0 mm 1 mps 760 mmHg 40%
11:00 +35°C° 0 mm 1 mps 760 mmHg 35%
12:00 +34°C° 0 mm 0 mps 759 mmHg 30%
13:00 +34°C° 0 mm 0 mps 759 mmHg 29%
14:00 +36°C° 0 mm 1 mps 759 mmHg 27%
15:00 +37°C° 0 mm 1 mps 759 mmHg 26%
16:00 +37°C° 0 mm 2 mps 758 mmHg 29%
17:00 +36°C° 0 mm 3 mps 758 mmHg 31%
18:00 +36°C° 0 mm 4 mps 758 mmHg 34%
19:00 +34°C° 0 mm 3 mps 758 mmHg 38%
20:00 +33°C° 0 mm 3 mps 758 mmHg 42%
21:00 +30°C° 0 mm 3 mps 758 mmHg 46%
22:00 +30°C° 0 mm 3 mps 758 mmHg 47%
23:00 +29°C° 0 mm 3 mps 758 mmHg 48%

Tomorrow, 5 July, Sunday

Time Temperature Precipitation Wind Pressure Humidity
00:00 +29°C° 0 mm 3 mps 758 mmHg 49%
01:00 +28°C° 0 mm 3 mps 758 mmHg 49%
02:00 +28°C° 0 mm 2 mps 758 mmHg 50%
03:00 +27°C° 0 mm 2 mps 758 mmHg 50%
04:00 +28°C° 0 mm 2 mps 758 mmHg 49%
05:00 +29°C° 0 mm 2 mps 758 mmHg 49%
06:00 +30°C° 0 mm 2 mps 758 mmHg 48%
07:00 +31°C° 0 mm 3 mps 758 mmHg 42%
08:00 +34°C° 0 mm 3 mps 758 mmHg 37%
09:00 +36°C° 0 mm 3 mps 758 mmHg 32%
10:00 +37°C° 0 mm 3 mps 757 mmHg 28%
11:00 +38°C° 0 mm 3 mps 757 mmHg 24%
12:00 +39°C° 0 mm 2 mps 757 mmHg 19%
13:00 +39°C° 0 mm 2 mps 757 mmHg 18%
14:00 +39°C° 0 mm 2 mps 756 mmHg 17%
15:00 +40°C° 0 mm 1 mps 756 mmHg 15%
16:00 +39°C° 0 mm 1 mps 756 mmHg 17%
17:00 +39°C° 0 mm 1 mps 756 mmHg 18%
18:00 +39°C° 0 mm 1 mps 755 mmHg 20%
19:00 +36°C° 0 mm 2 mps 755 mmHg 23%
20:00 +34°C° 0 mm 2 mps 756 mmHg 27%
21:00 +31°C° 0 mm 3 mps 756 mmHg 30%
22:00 +30°C° 0 mm 3 mps 756 mmHg 32%
23:00 +30°C° 0 mm 3 mps 756 mmHg 34%

Day after tomorrow, 6 July, Monday

Time Temperature Precipitation Wind Pressure Humidity
00:00 +29°C° 0 mm 3 mps 756 mmHg 37%
01:00 +29°C° 0 mm 3 mps 756 mmHg 38%
02:00 +28°C° 0 mm 2 mps 756 mmHg 40%
03:00 +28°C° 0 mm 2 mps 756 mmHg 42%
04:00 +29°C° 0 mm 2 mps 756 mmHg 42%
05:00 +29°C° 0 mm 2 mps 756 mmHg 42%
06:00 +30°C° 0 mm 2 mps 756 mmHg 41%
07:00 +32°C° 0 mm 2 mps 756 mmHg 37%
08:00 +35°C° 0 mm 2 mps 756 mmHg 32%
09:00 +37°C° 0 mm 2 mps 756 mmHg 27%
10:00 +38°C° 0 mm 2 mps 756 mmHg 23%
11:00 +39°C° 0 mm 1 mps 756 mmHg 19%
12:00 +40°C° 0 mm 1 mps 756 mmHg 15%
13:00 +40°C° 0 mm 2 mps 755 mmHg 15%
14:00 +40°C° 0 mm 3 mps 755 mmHg 14%
15:00 +42°C° 0 mm 4 mps 755 mmHg 14%
16:00 +41°C° 0 mm 4 mps 755 mmHg 17%
17:00 +40°C° 0 mm 5 mps 755 mmHg 20%
18:00 +39°C° 0 mm 5 mps 755 mmHg 22%
19:00 +36°C° 0 mm 5 mps 755 mmHg 25%
20:00 +35°C° 0 mm 5 mps 756 mmHg 28%
21:00 +33°C° 0 mm 5 mps 756 mmHg 30%
22:00 +32°C° 0 mm 5 mps 756 mmHg 33%
23:00 +30°C° 0 mm 4 mps 756 mmHg 35%

7 July, Tuesday

Time Temperature Precipitation Wind Pressure Humidity
00:00 +29°C° 0 mm 4 mps 756 mmHg 37%
01:00 +29°C° 0 mm 4 mps 756 mmHg 41%
02:00 +28°C° 0 mm 4 mps 756 mmHg 44%
03:00 +27°C° 0 mm 3 mps 756 mmHg 48%
04:00 +28°C° 0 mm 4 mps 756 mmHg 48%
05:00 +29°C° 0 mm 4 mps 757 mmHg 47%
06:00 +29°C° 0 mm 4 mps 757 mmHg 47%
07:00 +32°C° 0 mm 4 mps 757 mmHg 40%
08:00 +34°C° 0 mm 4 mps 757 mmHg 34%
09:00 +37°C° 0 mm 4 mps 757 mmHg 28%
10:00 +37°C° 0 mm 4 mps 757 mmHg 25%
11:00 +38°C° 0 mm 4 mps 757 mmHg 22%
12:00 +40°C° 0 mm 4 mps 756 mmHg 19%
13:00 +40°C° 0 mm 4 mps 756 mmHg 19%
14:00 +41°C° 0 mm 4 mps 756 mmHg 18%
15:00 +41°C° 0 mm 4 mps 755 mmHg 18%
16:00 +40°C° 0 mm 4 mps 755 mmHg 20%
17:00 +38°C° 0 mm 4 mps 756 mmHg 22%
18:00 +38°C° 0 mm 4 mps 756 mmHg 24%
19:00 +36°C° 0 mm 4 mps 756 mmHg 28%
20:00 +34°C° 0 mm 5 mps 756 mmHg 32%
21:00 +32°C° 0 mm 5 mps 756 mmHg 36%
22:00 +32°C° 0 mm 4 mps 756 mmHg 40%
23:00 +30°C° 0 mm 4 mps 756 mmHg 45%

8 July, Wednesday

Time Temperature Precipitation Wind Pressure Humidity
00:00 +29°C° 0 mm 4 mps 756 mmHg 49%
01:00 +28°C° 0 mm 3 mps 756 mmHg 52%
02:00 +28°C° 0 mm 3 mps 756 mmHg 55%
03:00 +27°C° 0 mm 3 mps 756 mmHg 58%
04:00 +27°C° 0 mm 3 mps 756 mmHg 57%
05:00 +28°C° 0 mm 3 mps 756 mmHg 56%
06:00 +28°C° 0 mm 4 mps 756 mmHg 54%
07:00 +30°C° 0 mm 4 mps 755 mmHg 50%
08:00 +32°C° 0 mm 4 mps 755 mmHg 46%
09:00 +34°C° 0 mm 4 mps 755 mmHg 42%
10:00 +35°C° 0 mm 4 mps 755 mmHg 38%
11:00 +35°C° 0 mm 4 mps 755 mmHg 34%
12:00 +36°C° 0 mm 4 mps 754 mmHg 30%
13:00 +37°C° 0 mm 4 mps 754 mmHg 29%
14:00 +37°C° 0 mm 4 mps 754 mmHg 27%
15:00 +38°C° 0 mm 3 mps 753 mmHg 25%
16:00 +37°C° 0 mm 4 mps 753 mmHg 27%
17:00 +36°C° 0 mm 4 mps 753 mmHg 29%
18:00 +36°C° 0 mm 5 mps 753 mmHg 31%
19:00 +35°C° 0 mm 5 mps 753 mmHg 34%
20:00 +33°C° 0 mm 4 mps 753 mmHg 37%
21:00 +32°C° 0 mm 4 mps 753 mmHg 40%
22:00 +30°C° 0 mm 3 mps 753 mmHg 43%
23:00 +29°C° 0 mm 3 mps 753 mmHg 47%

9 July, Thursday

Time Temperature Precipitation Wind Pressure Humidity
00:00 +29°C° 0 mm 2 mps 753 mmHg 50%
01:00 +28°C° 0 mm 2 mps 753 mmHg 52%
02:00 +28°C° 0 mm 2 mps 753 mmHg 54%
03:00 +27°C° 0 mm 2 mps 752 mmHg 56%
04:00 +28°C° 0 mm 2 mps 752 mmHg 56%
05:00 +28°C° 0 mm 2 mps 753 mmHg 55%
06:00 +29°C° 0 mm 2 mps 753 mmHg 54%
07:00 +30°C° 0 mm 2 mps 752 mmHg 50%
08:00 +32°C° 0 mm 2 mps 752 mmHg 45%
09:00 +34°C° 0 mm 2 mps 752 mmHg 41%
10:00 +35°C° 0 mm 2 mps 752 mmHg 38%
11:00 +36°C° 0 mm 2 mps 751 mmHg 36%
12:00 +36°C° 0 mm 2 mps 751 mmHg 34%
13:00 +36°C° 0 mm 2 mps 751 mmHg 33%
14:00 +36°C° 0 mm 2 mps 751 mmHg 33%
15:00 +37°C° 0 mm 2 mps 750 mmHg 32%
16:00 +36°C° 0 mm 2 mps 750 mmHg 34%
17:00 +35°C° 0 mm 3 mps 750 mmHg 36%
18:00 +35°C° 0 mm 3 mps 750 mmHg 38%
19:00 +34°C° 0 mm 3 mps 750 mmHg 41%
20:00 +32°C° 0 mm 4 mps 750 mmHg 44%
21:00 +30°C° 0 mm 4 mps 751 mmHg 47%
22:00 +30°C° 0 mm 4 mps 751 mmHg 48%
23:00 +30°C° 0 mm 4 mps 751 mmHg 49%
Show more